Regional Weather Roundup
Issued by NWS Glasgow, MT

Home | Current Version | Previous Version | Text Only | Print | Product List | Glossary On
Versions: 1 2 3 4 5 6 7 8 9 10 11 12 13 14 15 16 17 18 19 20 21 22 23 24 25 26 27
000
ASUS45 KGGW 290415
RWRGGW
HOURLY REGIONAL WEATHER ROUNDUP FOR NORTHEAST MONTANA
NATIONAL WEATHER SERVICE GLASGOW MONTANA
1000 PM MDT SAT MAY 28 2016

NOTE: "FAIR" INDICATES FEW OR NO CLOUDS BELOW 12,000 FEET WITH NO
SIGNIFICANT WEATHER AND/OR OBSTRUCTIONS TO VISISBILITY.

NORTHEAST MONTANA


CITY           SKY/WX    TMP DP  RH WIND       PRES   REMARKS
GLASGOW        CLEAR     56  38  50 SW6       29.96R
PLENTYWOOD       N/A     55  44  66 N7G17       N/A
WOLF POINT     CLEAR     54  44  69 CALM      29.97R
JORDAN           N/A     49  41  74 W5        30.00R
SIDNEY         CLEAR     54  46  74 NW7       29.96R
GLENDIVE       PTCLDY    55  45  67 NW7       30.01R
MALTA            N/A     51  38  60 SW3         N/A
SCOBEY           N/A     52  43  71 CALM      29.95R
OPHEIM           N/A     50  34  53 SW3       29.84R

FORT PECK REPORTS


CITY           SKY/WX    TMP DP  RH WIND       PRES   REMARKS
FORT PECK        N/A     59  37  44 W8G16       N/A
THE PINES        N/A     60  32  34 NW5         N/A

SOUTHEAST MONTANA


CITY           SKY/WX    TMP DP  RH WIND       PRES   REMARKS
BILLINGS       CLOUDY    59  39  47 CALM      30.04R
MILES CITY     CLOUDY    60  43  53 N7        30.00R
BAKER          CLEAR     54  41  61 CALM      30.01R
LIVINGSTON     CLEAR     48  42  80 SW7       30.04R

CENTRAL MONTANA


CITY           SKY/WX    TMP DP  RH WIND       PRES   REMARKS
HAVRE          CLEAR     48  39  71 SW9       29.96R
LEWISTOWN      CLEAR     48  37  65 S9        30.04R
GREAT FALLS    CLEAR     47  31  53 W9        30.02R
CUT BANK       CLEAR     47  30  51 W16       29.99R
HELENA         CLEAR     52  33  48 CALM      30.03R
BUTTE          CLEAR     49  33  54 NE3       30.09R
BOZEMAN        CLEAR     47  40  76 SE10      30.05R

WESTERN MONTANA


CITY           SKY/WX    TMP DP  RH WIND       PRES   REMARKS
MISSOULA       CLEAR     51  35  54 MISG      30.05R
KALISPELL      NOT AVBL

NORTH DAKOTA


CITY           SKY/WX    TMP DP  RH WIND       PRES   REMARKS
WILLISTON      CLEAR     50  48  93 CALM      29.95R
DICKINSON      FOG       50  48  93 W3        29.97R VSB 3/4
MINOT          CLOUDY    62  55  77 N5        29.93R
BISMARCK       CLEAR     57  56  96 W5        29.94R

SOUTHERN SASKATCHEWAN


CITY           SKY/WX    TMP DP  RH WIND       PRES   REMARKS
REGINA         PTCLDY    48  48 100 SW8       29.92R
ESTEVAN        NOT AVBL
SWIFT CURRENT  PTCLDY    50  48  93 NW5       29.92R





USA.gov is the U.S. government's official web portal to all federal, state and local government web resources and services.